Flag for India Weather past 2 weeks in Faridabad, Haryana, India

Now
86 °F

Haze.


Feels Like: 84 °F
Forecast: 74 / 88 °F
Wind: 10 mph from Southeast

Location: New Delhi Palam Airport


UV Index: 7 (High)

Visibility: 2 mi


Pressure: 29.74 "Hg

Humidity: 31%

Dew point: 52 °F

Location of FaridabadLocation

Historic Weather in Faridabad

°F

Faridabad temperature yesterday

Maximum temperature yesterday: 95 °F (at 2:30 PM)
Minimum temperature yesterday: 73 °F (at 3:00 AM)
Average temperature yesterday: 84 °F

Past Weeks' High & Low Weather Summary

 TemperatureHumidityPressure
High100 °F (Apr 12, 3:00 PM)83% (Apr 3, 6:00 AM)29.95 "Hg (Apr 3, 6:00 AM)
Low63 °F (Apr 3, 6:00 AM)12% (Apr 11, 2:30 PM)29.65 "Hg (Apr 2, 4:30 PM)
Average82 °F37%29.83 "Hg
* Reported Apr 2 7:30 AM — Apr 17 8:00 AM, Faridabad, Weather by CustomWeather, © 2014

Note: Actual official high and low records may vary slightly from our data, if they occured in-between our weather recording intervals... More about our weather records

Advertising

Historic Weather Conditions — Data for Previous 24 hours

 ConditionsComfort  
Time TempWeatherWind HumidityBarometerVisibility
8:00 AM
Apr 17
84 °FHaze.9 mph31%29.74 "Hg2 mi
7:30 AM77 °FHaze.7 mph39%29.74 "Hg2 mi
7:00 AM77 °FHaze.9 mph39%29.74 "Hg2 mi
6:30 AM77 °FHaze.6 mph39%29.74 "Hg1 mi
6:00 AM75 °FHaze.6 mph41%29.71 "Hg1 mi
5:30 AM75 °FHaze.6 mph41%29.71 "Hg1 mi
5:00 AM75 °FHaze.6 mph41%29.71 "Hg1 mi
4:30 AM75 °FHaze.6 mph41%29.71 "Hg1 mi
4:00 AM77 °FHaze.No wind39%29.71 "Hg1 mi
3:00 AM75 °FHaze.No wind41%29.74 "Hg1 mi
2:30 AM77 °FPassing clouds.No wind39%29.74 "Hg1 mi
2:00 AM77 °FPassing clouds.No wind42%29.74 "Hg1 mi
1:30 AM77 °FPassing clouds.No wind44%29.74 "Hg1 mi
1:00 AM77 °FPassing clouds.3 mph44%29.77 "Hg1 mi
12:30 AM77 °FPassing clouds.3 mph44%29.77 "Hg1 mi
12:00 AM79 °FPassing clouds.5 mph42%29.77 "Hg1 mi
11:30 PM
Apr 16
79 °FPassing clouds.5 mph42%29.77 "Hg1 mi
11:00 PM79 °FPassing clouds.6 mph42%29.77 "Hg1 mi
10:30 PM81 °FPassing clouds.6 mph37%29.77 "Hg2 mi
10:00 PM81 °FPassing clouds.7 mph39%29.77 "Hg2 mi
9:30 PM84 °FPassing clouds.7 mph35%29.80 "Hg2 mi
9:00 PM84 °FPassing clouds.7 mph35%29.77 "Hg2 mi
8:30 PM84 °FPassing clouds.7 mph35%29.77 "Hg2 mi
7:30 PM88 °FPassing clouds.3 mph29%29.77 "Hg2 mi
6:30 PM91 °FScattered clouds.5 mph23%29.77 "Hg3 mi
6:00 PM93 °FScattered clouds.3 mph20%29.74 "Hg3 mi
5:00 PM95 °FHaze.5 mph19%29.74 "Hg3 mi
4:30 PM95 °FHaze.8 mph19%29.74 "Hg3 mi
4:00 PM95 °FHaze.8 mph19%29.74 "Hg3 mi
3:30 PM95 °FHaze.8 mph19%29.77 "Hg2 mi
3:00 PM95 °FHaze.7 mph19%29.77 "Hg2 mi
2:30 PM95 °FHaze.7 mph19%29.77 "Hg2 mi
2:00 PM93 °FHaze.7 mph21%29.80 "Hg2 mi
1:30 PM91 °FScattered clouds.6 mph24%29.83 "Hg2 mi
12:30 PM82 °FBroken clouds.10 mph40%29.86 "Hg2 mi
12:00 PM82 °FBroken clouds.12 mph40%29.89 "Hg2 mi
11:30 AM81 °FBroken clouds.7 mph45%29.89 "Hg2 mi
11:00 AM81 °FBroken clouds.10 mph45%29.95 "Hg2 mi
10:30 AM81 °FBroken clouds.10 mph42%29.92 "Hg2 mi
10:00 AM77 °FBroken clouds.7 mph51%29.89 "Hg2 mi
9:30 AM75 °FThunderstorms. Mostly cloudy.9 mph57%29.92 "Hg2 mi
9:00 AM73 °FThunderstorms. Mostly cloudy.5 mph65%29.95 "Hg2 mi
Weather by CustomWeather, © 2014

See weather overview